FENGYUN 1C DEB

Satellite information

Favourite Embed

Satellite Type and Status

DEBRISIN ORBIT

Key statistics

Satellite FENGYUN 1C DEB at a glance.

Uptime

9717

Days in orbit

Revolutions

≈ 14.0

Per day

Orbit

SSO

Sun Synchronous Orbit

Inclination

99.9

Latest

Satellite identification and parameters

Extended collection of information and parameters for FENGYUN 1C DEB.

Object identification

Identified? True

Debris? True

Object name: FENGYUN 1C DEB

International designator: 1999-025CRM

Object number (NORAD): 32119

Object ID (CCSDS): 32119

Country: PEOPLES REPUBLIC OF CHINA (PRC)

Current information (Y/N): Y

RCS size: SMALL

Orbital parameters

Period: 102.65 minutes

Inclination: 99.8872 deg

SMA: 7262.17 km

Apoapsis: 946.302 km

Periapsis: 821.769 km

RAAN: 210.5017 deg

Eccentricy: 0.0085741

Argument of periapsis: 49.2118 deg

Mean anomaly: 311.6444 deg

Mean motion: 14.02823835 rev/day

Mean motion (dot): 0.00001492 rev/day2

B* drag term: 0.00096504005 1/REarth

Two-line elements (TLE)

Creation date: Dec. 14, 2025, 11:30 a.m.

Reference frame: TEME

Reference center: EARTH

Epoch: Dec. 13, 2025, 9:24 p.m. UTC

TLE line 0: 0 FENGYUN 1C DEB

TLE line 1: 1 32119U 99025CRM 25347.89233683 .00001492 00000-0 96504-3 0 9997

TLE line 2: 2 32119 99.8872 210.5017 0085741 49.2118 311.6444 14.02823835937443

Live tracking on map

Real-time ground track for satellite FENGYUN 1C DEB.

In-orbit conjunctions

A list of the most updated potential collisions computed for object FENGYUN 1C DEB.

Target Orbit TCA Probability of collision Miss distance Type
NOAA 16 DEB SSO 2025-09-06 09:08:47 0.0009080812 68.0 (m) DEBRIS
FENGYUN 1C DEB SSO 2025-08-09 19:33:48 0.0002166901 140.0 (m) DEBRIS

Associated space launch

Chinese polar orbiting meteorological satellite

FENGYUN 1C DEB was lifted into orbit during the mission ‘Long March 4B | Feng Yun 1C’, on board a Long March 4B space rocket.

The launch took place on May 10, 1999, 1:33 a.m. from Launch Complex 7.

For more information about the launch, click the button.

Launch to space Long March 4B | Feng Yun 1C
Long March 4B | Feng Yun 1C

Agency: N/A

Status: Launch Successful

Launch date: May 10, 1999, 1:33 a.m. UTC

Rocket: Long March 4B

Launch pad: Launch Complex 7

Location: Taiyuan Satellite Launch Center, People's Republic of China

...

Latest news about this satellite

There are no fresh news available about this satellite. Check back as we update our databases every day.


Newsletter sign-up

Weekly statistics, charts and insights to help you stay on top of the space industry.